Regional Weather Roundup
Issued by NWS Cleveland, OH

Home | Current Version | Previous Version | Graphics & Text | Print | Product List | Glossary On
Versions: 1 2 3 4 5 6 7 8 9 10 11 12 13 14 15 16 17 18 19 20 21 22 23 24 25 26 27 28 29 30 31 32 33 34 35 36 37 38 39 40 41 42 43 44 45 46 47 48 49 50
024
ASUS41 KCLE 260300
RWRCLE
OHIO REGIONAL WEATHER ROUNDUP
NATIONAL WEATHER SERVICE WILMINGTON, OH
1100 PM EDT THU AUG 25 2016

NOTE: "FAIR" INDICATES FEW OR NO CLOUDS BELOW 12,000 FEET WITH NO
SIGNIFICANT WEATHER AND/OR OBSTRUCTIONS TO VISIBILITY.

OHZ001>008-015>018-024>027-034-035-043-044-260400-
   NORTHWEST OHIO

CITY           SKY/WX    TMP DP  RH WIND       PRES   REMARKS
DEFIANCE       FAIR      74  69  85 CALM      30.05S
FINDLAY        FAIR      75  68  78 SW3       30.04S
TOLEDO EXPRESS FAIR      74  71  91 W6        30.04R
TOLEDO EXEC    FAIR      76  70  82 W5        30.04R
LIMA           FAIR      75  71  87 SW5       30.07R
$$

OHZ009>014-019>023-028>033-038-089-260400-
   NORTHEAST OHIO

CITY           SKY/WX    TMP DP  RH WIND       PRES   REMARKS
CLE-HOPKINS    FAIR      81  68  64 W9        30.04S
CLE-LAKEFRONT  FAIR      79  74  84 W9        30.00S
CUY CO. ARPT   PTCLDY    81  73  78 W12       30.02S
LORAIN-ELYRIA  FAIR      75  68  78 NW8       30.04R
ASHTABULA      FAIR      72  72 100 CALM      30.02S
AKRON-CANTON   MOCLDY    78  69  73 NW7       30.05R
WOOSTER        NOT AVBL
MANSFIELD      FAIR      76  69  79 W6        30.07S
YOUNGSTOWN     MOCLDY    73  71  93 W3        30.03S
$$

OHZ042-051>053-060>062-070>072-077>081-260400-
  SOUTHWEST OHIO

CITY           SKY/WX    TMP DP  RH WIND       PRES   REMARKS
CINC-COVINGTON FAIR      79  73  82 SW5       30.08S
CINC-LUNKEN    FAIR      74  74 100 CALM      30.07R
HAMILTON       FAIR      75  72  90 CALM      30.07S
DAYTON         NOT AVBL
WRIGHT-PAT AFB FAIR      77  72  85 S3        30.07S
DAYTON GENERAL FAIR      81  72  74 W3        30.08R
WILMINGTON     FAIR      76  73  91 SW5       30.08S
$$

OHZ036-037-039>041-045>050-054>059-063>069-073>076-082>088-260400-
  CENTRAL AND SOUTHEAST OHIO

CITY           SKY/WX    TMP DP  RH WIND       PRES   REMARKS
COLUMBUS       FAIR      80  71  74 W6        30.05S
OSU AIRPORT    FAIR      77  73  87 W6        30.06S
BOLTON FIELD   NOT AVBL
RICKENBACK AFB NOT AVBL
NEWARK         FAIR      75  73  93 W5        30.05S
MARION         FAIR      77  69  76 W5        30.07R
LANCASTER      FAIR      77  73  87 SW3       30.07R
ZANESVILLE     FAIR      79  73  82 W6        30.05S
NEW PHILLY     LGT RAIN  83  73  72 NW6       30.04R
$$




USA.gov is the U.S. government's official web portal to all federal, state and local government web resources and services.